Weather in Naugarzan

Tajikistan     40°59′52″N   70°25′51″E
temp.,
°C
wind,
m/s
gust,
m/s
humid.,
%
clouds,
%
prec.,
mm/h
press.,
hPa
HPBL,
m
12 april, mon
mon1223:00+7nw116693 1.4 1018440
02:00+6nnw227596 1.6 1018222
05:00+5s117852 3.4 101934
08:00+7se117098 2.0 1020277
11:00+8ese216286 3.6 1020701
14:00+11nnw124949 2.0 10181242
17:00+8nw556675 3.5 1020843
20:00+6nw557296 0.5 1022257
13 april, tue
tue1323:00+6nnw236716 0.8 102078
02:00+7nne1157100 0.0 101913
05:00+7nnw2257100 0.0 101934
08:00+8nw0152100 0.0 1020191
11:00+7nw2268100 0.9 1022675
14:00+8ssw1274100 0.9 1022930
17:00+8n127567 2.4 1022360
20:00+8ese127189 0.1 1022144
14 april, wed
wed1423:00+7ene117162 0.2 102113
02:00+6ne11688 0.0 102011
05:00+5ne11692 0.0 102011
08:00+9ese12556 0.0 1020293
11:00+12se2247100 0.0 1018922
14:00+14sse22383 0.0 10161381
17:00+14ese223716 0.0 1015906
20:00+12e1154100 0.0 101670
15 april, thu
thu1523:00+10n115812 0.1 101512
02:00+9nne11560 0.0 101411
05:00+8ne11520 0.0 101410
08:00+12ese114066 0.0 1015253
11:00+15sse21335 0.0 10141194
14:00+17s132981 0.0 10121951
17:00+16ssw123288 0.0 10111556
20:00+13nw225687 0.0 101357
16 april, fri
fri1623:00+11nw3361100 0.0 101280
02:00+10nw4462100 0.0 101279
05:00+8nw4471100 0.0 101287
08:00+9nw3467100 0.0 1014224
11:00+12wsw1153100 0.0 1014722
14:00+13sw1348100 0.5 10141271
17:00+13sw2343100 0.8 10141298
20:00+11nw115398 0.0 1016148